[[{"header":{"parameterUnit":"m.s-1","parameterCategory":1,"la1":30.2991,"la2":30.254,"lo1":-89.0895,"lo2":-89.0444,"dy":0.0017,"dx":0.0017,"nx":28,"ny":28,"refTime":"2025-05-26T21:00:00:Z","depth":0,"parameterNumber":2,"parameterNumberName":"U-component_of_WINDS"},"data":[0,0,0,0,0,0,0,0,0,0,0,0,0,0,0,0,0,0,0,0,0,0,0,0,0,0,0,0,0,0,0,0,0,0,0,0,0,0,0,0,0,0,0,0,0,0,0,0,0,0,0,0,0,0,0,0,0,0,-0.7044,-0.7043,0,-0.6987,-0.6986,-0.6986,-0.7021,-0.7023,-0.7024,-0.7026,-0.6964,-0.6961,-0.6958,0,0,0,0,0,0,0,0,0,0,0,0,0,-0.7179,-0.7177,-0.7044,-0.7043,-0.7042,-0.6987,-0.6986,-0.6985,-0.7021,-0.7023,-0.7025,-0.7027,-0.6965,-0.6961,-0.6957,0,0,0,0,0,0,0,0,0,0,0,0,0,-0.7121,-0.7176,-0.7044,-0.7053,-0.7054,-0.6987,-0.6986,-0.6985,-0.702,-0.7023,-0.7025,-0.7028,-0.6966,-0.6962,-0.6957,-0.6876,0,0,-0.6942,-0.694,0,0,0,0,0,0,0,0,-0.7124,-0.7116,-0.7053,-0.7053,-0.7053,-0.7014,-0.7011,-0.6949,-0.702,-0.7033,-0.7026,-0.7029,-0.6978,-0.6973,-0.6956,-0.6874,-0.6871,-0.6942,-0.6939,-0.6937,-0.6935,0,0,0,0,0,0,0,-0.7128,-0.7119,-0.7021,-0.7052,-0.7052,-0.7059,-0.7054,-0.6999,-0.6992,-0.7032,-0.7034,-0.7027,-0.6979,-0.6961,-0.6955,-0.687,-0.6942,-0.6938,-0.6935,-0.6933,-0.6716,-0.6713,0,0,0,0,0,0,-0.7132,-0.7122,-0.7023,-0.7019,-0.7096,-0.7055,-0.7049,-0.7024,-0.6993,-0.6991,-0.7025,-0.7029,-0.6968,-0.6961,-0.6953,-0.6854,-0.6937,-0.6932,-0.6929,-0.6719,-0.6715,-0.6712,0,0,0,0,0,0,-0.7135,-0.7123,-0.7025,-0.7071,-0.7059,-0.705,-0.7021,-0.7021,-0.7003,-0.6988,-0.6986,-0.7009,-0.697,-0.696,-0.6895,-0.6853,-0.693,-0.6926,-0.6722,-0.6718,-0.6714,-0.6658,0,0,0,0,0,0,-0.7139,-0.7124,-0.7094,-0.707,-0.7057,-0.6969,-0.7019,-0.7018,-0.6995,-0.7,-0.6972,-0.6969,-0.6971,-0.6902,-0.689,-0.6848,-0.6922,-0.6726,-0.672,-0.6715,-0.6663,-0.6652,-0.6643,0,0,0,0,0,-0.7143,-0.708,-0.7092,-0.708,-0.702,-0.6967,-0.6959,-0.6963,-0.6992,-0.6961,-0.6951,-0.697,-0.686,-0.6895,-0.6882,-0.6837,-0.6728,-0.6722,-0.6715,-0.6668,-0.6654,-0.6643,0,0,0,0,0,0,-0.7098,-0.7077,-0.709,-0.7018,-0.6994,-0.6973,-0.6934,-0.6949,-0.6915,-0.692,-0.6926,-0.6919,-0.6851,-0.6838,-0.6877,-0.6757,-0.6799,-0.6789,-0.6767,-0.6754,-0.6744,-0.6747,-0.6918,0,0,0,0,0,-0.708,-0.704,-0.7024,-0.6962,-0.6949,-0.6943,-0.6921,-0.6926,-0.69,-0.689,-0.6875,-0.6849,-0.6808,-0.6781,-0.6743,-0.6663,-0.6656,-0.6626,-0.6615,-0.6607,-0.6598,-0.6552,-0.6537,-0.6691,-0.6691,-0.6691,0,0,-0.7042,-0.7026,-0.7,-0.6952,-0.6934,-0.689,-0.6934,-0.6887,-0.6854,-0.6882,-0.682,-0.6808,-0.6779,-0.6705,-0.6672,-0.6692,-0.6554,-0.6599,-0.6592,-0.6587,-0.6544,-0.6529,-0.6516,-0.6687,-0.6687,-0.6688,0,0,-0.6949,-0.6934,-0.6879,-0.686,-0.6832,-0.6829,-0.6816,-0.6792,-0.6786,-0.6723,-0.6743,-0.6704,-0.6634,-0.6612,-0.6591,-0.649,-0.6505,-0.6477,-0.6422,-0.6377,-0.6365,-0.6354,-0.6315,-0.6301,-0.6469,-0.6469,-0.6469,0,-0.6904,-0.6841,-0.6849,-0.6799,-0.6777,-0.6802,-0.6745,-0.6726,-0.6687,-0.667,-0.6694,-0.6606,-0.6588,-0.6508,-0.6484,-0.6467,-0.645,-0.6479,-0.6366,-0.6356,-0.6345,-0.6308,-0.6293,-0.6465,-0.6466,-0.6466,-0.6466,0,-0.6786,-0.6741,-0.67,-0.6662,-0.6635,-0.6582,-0.6581,-0.6552,-0.656,-0.6554,-0.6489,-0.6469,-0.6426,-0.6408,-0.6415,-0.6329,-0.6342,-0.6366,-0.6407,-0.6327,-0.6292,-0.6278,-0.646,-0.6461,-0.6463,-0.6463,0,0,-0.6661,-0.6628,-0.6613,-0.6595,-0.6566,-0.6531,-0.6479,-0.6438,-0.6411,-0.6384,-0.6338,-0.6279,-0.6301,-0.6277,-0.6283,-0.6244,-0.6161,-0.6272,-0.6272,-0.6249,-0.606,-0.604,-0.6023,-0.6172,-0.617,-0.6167,-0.6062,0,-0.6564,-0.6474,-0.6479,-0.6393,-0.635,-0.6374,-0.6328,-0.6304,-0.6297,-0.6259,-0.6251,-0.6207,-0.6241,-0.6227,-0.619,-0.6179,-0.6122,-0.6187,-0.6127,-0.6125,-0.613,-0.6005,-0.5984,-0.5885,-0.6048,-0.6046,-0.6045,0,-0.6439,-0.6407,-0.6316,-0.6292,-0.6274,-0.6233,-0.6195,-0.6159,-0.6132,-0.613,-0.6103,-0.6114,-0.606,-0.6105,-0.6028,-0.6072,-0.6048,-0.6039,-0.6035,-0.6027,-0.6077,-0.5991,-0.5854,-0.5838,-0.6023,-0.6025,-0.6027,0,-0.6353,-0.6288,-0.6224,-0.6209,-0.618,-0.6149,-0.6136,-0.6112,-0.6086,-0.6053,-0.6036,-0.5996,-0.5974,-0.5942,-0.5942,-0.5976,-0.5863,-0.5909,-0.5857,-0.5856,-0.5829,-0.583,-0.5684,-0.582,-0.582,-0.582,-0.582,0,-0.6242,-0.6185,-0.6185,-0.6146,-0.6082,-0.6089,-0.6025,-0.6014,-0.5993,-0.595,-0.5969,-0.5929,-0.5932,-0.5891,-0.5891,-0.5825,-0.5816,-0.581,-0.581,-0.5807,-0.5807,-0.5789,-0.5794,-0.5816,-0.5817,-0.5818,-0.5819,0,-0.6134,-0.6133,-0.6064,-0.6043,-0.6036,-0.5989,-0.597,-0.5932,-0.5927,-0.5873,-0.5861,-0.5852,-0.5805,-0.5802,-0.5747,-0.5747,-0.5666,-0.5676,-0.5675,-0.5676,-0.5622,-0.5626,-0.5456,-0.5433,-0.5587,-0.5585,-0.5584,0,-0.6062,-0.6019,-0.5992,-0.5965,-0.595,-0.5907,-0.5881,-0.5886,-0.5858,-0.5823,-0.5789,-0.5743,-0.5707,-0.563,-0.5617,-0.5575,-0.5581,-0.5525,-0.5575,-0.5572,-0.5576,-0.5578,-0.5572,-0.5514,-0.5512,-0.5511,-0.551,0,-0.5933,-0.5934,-0.5896,-0.5857,-0.5826,-0.5795,-0.5767,-0.5744,-0.5745,-0.5712,-0.5664,-0.5636,-0.558,-0.5533,-0.5492,-0.5477,-0.5492,-0.5494,-0.5479,-0.5474,-0.5474,-0.547,-0.5645,-0.5497,-0.5499,-0.5499,-0.55,-0.5501,-0.5839,-0.58,-0.5775,-0.5731,-0.5711,-0.5684,-0.5646,-0.5636,-0.5597,-0.5551,-0.5557,-0.5503,-0.5476,-0.5422,-0.5403,-0.536,-0.5379,-0.5358,-0.5352,-0.5346,-0.5339,-0.5484,-0.5353,-0.5353,-0.5353,-0.5354,-0.5354,0,-0.5708,-0.5693,-0.5653,-0.5613,-0.5578,-0.5597,-0.5567,-0.5536,-0.5488,-0.5462,-0.5426,-0.5369,-0.5324,-0.5309,-0.5265,-0.5232,-0.5238,-0.522,-0.5221,-0.5217,-0.5326,-0.5342,-0.5216,-0.5216,-0.5216,-0.5216,-0.5216,-0.5216,-0.5636,-0.5571,-0.5568,-0.5493,-0.5478,-0.5425,-0.5405,-0.538,-0.5359,-0.5295,-0.5258,-0.5248,-0.5226,-0.518,-0.5139,-0.5135,-0.5117,-0.5095,-0.5094,-0.5196,-0.5209,-0.5222,-0.5237,-0.5092,-0.5092,-0.4988,-0.4987,-0.4986]},{"header":{"parameterUnit":"m.s-1","parameterCategory":1,"la1":30.2991,"la2":30.254,"lo1":-89.0895,"lo2":-89.0444,"dy":0.0017,"dx":0.0017,"nx":28,"ny":28,"refTime":"2025-05-26T21:00:00:Z","depth":0,"parameterNumber":3,"parameterNumberName":"V-component_of_WINDS"},"data":[0,0,0,0,0,0,0,0,0,0,0,0,0,0,0,0,0,0,0,0,0,0,0,0,0,0,0,0,0,0,0,0,0,0,0,0,0,0,0,0,0,0,0,0,0,0,0,0,0,0,0,0,0,0,0,0,0,0,3.7889,3.789,0,3.7931,3.7932,3.7932,3.79,3.7899,3.7897,3.7896,3.7937,3.794,3.7942,0,0,0,0,0,0,0,0,0,0,0,0,0,3.7782,3.7784,3.7889,3.789,3.7891,3.7931,3.7932,3.7932,3.79,3.7899,3.7897,3.7895,3.7937,3.7939,3.7942,0,0,0,0,0,0,0,0,0,0,0,0,0,3.7827,3.7785,3.7889,3.7879,3.7879,3.7931,3.7932,3.7933,3.7901,3.7899,3.7896,3.7895,3.7936,3.7939,3.7943,3.8007,0,0,3.7954,3.7955,0,0,0,0,0,0,0,0,3.7824,3.7831,3.788,3.788,3.788,3.7908,3.7909,3.7957,3.7901,3.7892,3.7896,3.7894,3.7929,3.7933,3.7946,3.8009,3.801,3.7954,3.7956,3.7958,3.7959,0,0,0,0,0,0,0,3.7821,3.7829,3.7906,3.7881,3.7881,3.7873,3.7877,3.7918,3.7922,3.7893,3.7891,3.7896,3.7929,3.7942,3.7946,3.8011,3.7954,3.7957,3.7959,3.7961,3.8132,3.8134,0,0,0,0,0,0,3.7819,3.7827,3.7905,3.7907,3.7846,3.7877,3.7881,3.7901,3.7921,3.7923,3.7898,3.7895,3.7937,3.7942,3.7948,3.8027,3.7958,3.7961,3.7963,3.813,3.8133,3.8135,0,0,0,0,0,0,3.7817,3.7827,3.7903,3.7866,3.7876,3.7881,3.7904,3.7903,3.7917,3.7925,3.7926,3.7911,3.7936,3.7943,3.7993,3.8028,3.7963,3.7966,3.8127,3.8131,3.8134,3.8184,0,0,0,0,0,0,3.7814,3.7826,3.785,3.7867,3.7878,3.7948,3.7906,3.7906,3.7923,3.7919,3.7938,3.7939,3.7935,3.7988,3.7997,3.8031,3.7969,3.8124,3.8129,3.8133,3.8179,3.8188,3.8197,0,0,0,0,0,3.781,3.7861,3.7851,3.7861,3.7908,3.795,3.7956,3.795,3.7926,3.7951,3.7957,3.7938,3.8022,3.7993,3.8003,3.8039,3.8122,3.8127,3.8132,3.8175,3.8187,3.8196,0,0,0,0,0,0,3.7846,3.7863,3.7852,3.791,3.7929,3.7944,3.7975,3.7962,3.7988,3.7983,3.7975,3.7979,3.8033,3.8041,3.8008,3.8104,3.8068,3.8076,3.8097,3.8108,3.8117,3.8115,3.7972,0,0,0,0,0,3.7861,3.7894,3.7906,3.7956,3.7966,3.7969,3.7987,3.7982,3.8001,3.8008,3.8017,3.8037,3.8068,3.8088,3.8116,3.8179,3.8185,3.8209,3.8218,3.8225,3.8233,3.827,3.8282,3.8153,3.8153,3.8153,0,0,3.7892,3.7905,3.7926,3.7964,3.7978,3.8013,3.7976,3.8013,3.804,3.8014,3.8063,3.8071,3.8091,3.815,3.8175,3.8158,3.8269,3.8232,3.8238,3.8241,3.8277,3.8289,3.83,3.8157,3.8156,3.8155,0,0,3.7966,3.7978,3.8023,3.8038,3.806,3.8062,3.8073,3.8091,3.8096,3.8145,3.8128,3.8158,3.8211,3.8228,3.8243,3.8327,3.8312,3.8336,3.8383,3.8419,3.843,3.8439,3.8471,3.8483,3.8343,3.8343,3.8343,0,3.8001,3.8053,3.8047,3.8087,3.8106,3.8085,3.8131,3.8146,3.8176,3.819,3.8169,3.8238,3.8249,3.8313,3.8334,3.8346,3.836,3.8335,3.8429,3.8438,3.8446,3.8477,3.8489,3.8346,3.8346,3.8345,3.8345,0,3.8097,3.8134,3.8167,3.8199,3.822,3.8263,3.8264,3.8287,3.828,3.8285,3.8337,3.8351,3.8384,3.8398,3.8391,3.8462,3.8451,3.843,3.8394,3.8461,3.8491,3.8502,3.835,3.8349,3.8348,3.8348,0,0,3.8194,3.8224,3.8237,3.8253,3.8277,3.8305,3.8348,3.8381,3.8402,3.8424,3.8461,3.8507,3.8489,3.8507,3.8501,3.8533,3.8603,3.8509,3.8509,3.8528,3.8685,3.8703,3.8716,3.8593,3.8595,3.8596,3.8684,0,3.8272,3.8348,3.8345,3.8415,3.845,3.8432,3.847,3.849,3.8495,3.8526,3.8532,3.8567,3.8538,3.855,3.858,3.8588,3.8635,3.8581,3.8629,3.863,3.8626,3.8731,3.8749,3.8831,3.8695,3.8697,3.8699,0,3.8373,3.8401,3.8475,3.8498,3.8512,3.8546,3.8578,3.8607,3.863,3.8632,3.8653,3.8644,3.8688,3.865,3.8713,3.8677,3.8696,3.8703,3.8706,3.8712,3.867,3.8742,3.8857,3.8871,3.8716,3.8715,3.8713,0,3.844,3.8496,3.8549,3.8562,3.8588,3.8613,3.8625,3.8646,3.8667,3.8695,3.8709,3.8741,3.8759,3.8785,3.8785,3.8757,3.8849,3.8811,3.8854,3.8854,3.8876,3.8875,3.8998,3.8884,3.8884,3.8884,3.8883,0,3.8529,3.8576,3.858,3.8613,3.8666,3.8662,3.8715,3.8724,3.8743,3.8778,3.8763,3.8797,3.8794,3.8827,3.8827,3.8881,3.8889,3.8893,3.8893,3.8896,3.8896,3.891,3.8905,3.8887,3.8886,3.8885,3.8885,0,3.8613,3.8618,3.8675,3.8696,3.8703,3.8741,3.8759,3.8791,3.8796,3.8841,3.8851,3.886,3.8899,3.8901,3.8946,3.8946,3.9013,3.9005,3.9006,3.9005,3.905,3.9047,3.9188,3.9207,3.9079,3.908,3.9081,0,3.8671,3.8707,3.8733,3.8756,3.877,3.8807,3.883,3.8828,3.8852,3.8882,3.8911,3.8949,3.898,3.9044,3.9054,3.9089,3.9084,3.9131,3.9089,3.9092,3.9088,3.9087,3.9092,3.914,3.9141,3.9142,3.9143,0,3.8773,3.8774,3.8807,3.8843,3.887,3.8897,3.8923,3.8942,3.8944,3.8972,3.9013,3.9037,3.9084,3.9123,3.9158,3.9171,3.9159,3.9156,3.9169,3.9173,3.9174,3.9177,3.9031,3.9153,3.9152,3.9151,3.9151,3.9151,3.8848,3.8881,3.8905,3.8944,3.8963,3.8988,3.902,3.903,3.9064,3.9104,3.91,3.9147,3.917,3.9216,3.9232,3.9269,3.9253,3.927,3.9275,3.928,3.9286,3.9166,3.9275,3.9274,3.9274,3.9274,3.9274,0,3.8952,3.8968,3.9003,3.904,3.9071,3.9057,3.9085,3.9112,3.9153,3.9177,3.9208,3.9257,3.9295,3.931,3.9348,3.9375,3.937,3.9385,3.9384,3.9388,3.9297,3.9284,3.9388,3.9388,3.9388,3.9388,3.9388,3.9388,3.901,3.9067,3.9071,3.9137,3.9152,3.9198,3.9216,3.9239,3.9259,3.9314,3.9347,3.9356,3.9377,3.9417,3.9452,3.9455,3.9471,3.9489,3.949,3.9405,3.9394,3.9383,3.9371,3.9492,3.9492,3.9579,3.958,3.958]}]]